Location: Newark
(21.1200°N, 73.4000°E)
Time: 15:39:47
(UTC+00:00)

Explorer 11/Cluster Stage 4 - Pass Details

Date: 20 January 2020
Orbit: 467 x 1259 km, 28.8° (Epoch: 23 February)

Event Time Altitude Azimuth Distance (km) Brightness Sun altitude
Rises 16:37:55 0° 288° (WNW) 3,047 - -52.8°
Reaches altitude 10° 16:40:34 10° 285° (WNW) 2,004 - -53.4°
Maximum altitude 16:45:04 62° 205° (SSW) 617 - -54.4°
Drops below altitude 10° 16:48:51 10° 124° (SE) 1,690 - -55.3°
Sets 16:50:55 0° 120° (ESE) 2,522 - -55.8°
